,,PA_Meas_PMT16A,,PR_Meas_QMR101_102,,RH_Meas_QMH101,,SR_Meas_QMS101,,TA_Meas_QMH101,,GenWind,,GenWind,
time,status,PA,status,PR,status,RH,status,SR,status,TA,status,DirAvg,status,SpdAvg,
2016-03-28, 07:36:04,VALID,920.64,VALID,0,VALID,81.8679,VALID,81.9776,VALID,19.9968,VALID,146,VALID,0.642187,
2016-03-28, 07:37:04,VALID,920.643,VALID,0,VALID,83.8804,VALID,83.9115,VALID,20.0148,VALID,137,VALID,0.00820312,
2016-03-28, 07:38:04,VALID,920.673,VALID,0,VALID,84.963,VALID,86.0604,VALID,20.0553,VALID,107,VALID,0.48125,
2016-03-28, 07:39:04,VALID,920.666,VALID,0,VALID,84.3836,VALID,88.1017,VALID,20.0538,VALID,140,VALID,0.549609,
2016-03-28, 07:40:04,VALID,920.687,VALID,0,VALID,83.5145,VALID,89.9282,VALID,20.0733,VALID,119,VALID,1.35938,
2016-03-28, 07:41:04,VALID,920.717,VALID,0,VALID,82.493,VALID,91.6473,VALID,20.1123,VALID,117,VALID,0.975391,
2016-03-28, 07:42:04,VALID,920.72,VALID,0,VALID,84.0863,VALID,93.3664,VALID,20.1529,VALID,130,VALID,1.72305,
2016-03-28, 07:43:04,VALID,920.758,VALID,0,VALID,84.8639,VALID,95.1929,VALID,20.1919,VALID,131,VALID,0.204297,
2016-03-28, 07:44:04,VALID,920.731,VALID,0,VALID,84.0024,VALID,97.9863,VALID,20.2114,VALID,138,VALID,1.20469,
2016-03-28, 07:45:04,VALID,920.762,VALID,0,VALID,83.7966,VALID,101.854,VALID,20.2489,VALID,142,VALID,0.732813,
2016-03-28, 07:46:04,VALID,920.767,VALID,0,VALID,84.6352,VALID,105.507,VALID,20.2684,VALID,134,VALID,0.997266,
2016-03-28, 07:47:04,VALID,920.78,VALID,0,VALID,83.85,VALID,108.73,VALID,20.2879,VALID,133,VALID,2.13633,
2016-03-28, 07:48:04,VALID,920.757,VALID,0,VALID,83.7356,VALID,111.202,VALID,20.3089,VALID,148,VALID,0.817578,
2016-03-28, 07:49:04,VALID,920.753,VALID,0,VALID,82.3634,VALID,114.425,VALID,20.3269,VALID,129,VALID,1.67773,
2016-03-28, 07:50:04,VALID,920.733,VALID,0,VALID,83.0876,VALID,118.937,VALID,20.3464,VALID,150,VALID,0.814062,
2016-03-28, 07:51:04,VALID,920.753,VALID,0,VALID,82.2033,VALID,123.987,VALID,20.3659,VALID,144,VALID,1.4418,
2016-03-28, 07:52:04,VALID,920.782,VALID,0,VALID,82.2567,VALID,128.285,VALID,20.4454,VALID,120,VALID,0.639063,
2016-03-28, 07:53:04,VALID,920.775,VALID,0,VALID,81.967,VALID,132.26,VALID,20.4634,VALID,144,VALID,1.11953,
2016-03-28, 07:54:04,VALID,920.791,VALID,0,VALID,80.7396,VALID,135.591,VALID,20.5024,VALID,140,VALID,1.51016,
2016-03-28, 07:55:04,VALID,920.782,VALID,0,VALID,80.9302,VALID,138.814,VALID,20.5414,VALID,151,VALID,1.04531,
2016-03-28, 07:56:04,VALID,920.787,VALID,0,VALID,80.7853,VALID,141.93,VALID,20.5609,VALID,148,VALID,1.23984,
2016-03-28, 07:57:04,VALID,920.845,VALID,0,VALID,80.8082,VALID,145.046,VALID,20.5804,VALID,137,VALID,0.681641,
2016-03-28, 07:58:04,VALID,920.866,VALID,0,VALID,79.1234,VALID,148.054,VALID,20.5999,VALID,137,VALID,1.4125,
2016-03-28, 07:59:04,VALID,920.883,VALID,0,VALID,81.7459,VALID,150.525,VALID,20.639,VALID,127,VALID,0.0738281,
2016-03-28, 08:00:04,VALID,920.858,VALID,0,VALID,81.2427,VALID,152.459,VALID,20.6374,VALID,130,VALID,0.986328,
2016-03-28, 08:01:04,VALID,920.844,VALID,0,VALID,81.7154,VALID,153.533,VALID,20.678,VALID,140,VALID,1.12656,
2016-03-28, 08:02:04,VALID,920.877,VALID,0,VALID,81.0598,VALID,154.5,VALID,20.717,VALID,150,VALID,1.25391,
2016-03-28, 08:03:04,VALID,920.862,VALID,0,VALID,80.145,VALID,155.36,VALID,20.7365,VALID,139,VALID,1.47695,
2016-03-28, 08:04:04,VALID,920.925,VALID,0,VALID,81.38,VALID,155.79,VALID,20.756,VALID,142,VALID,0.715234,
2016-03-28, 08:05:04,VALID,920.941,VALID,0,VALID,80.2669,VALID,155.36,VALID,20.7349,VALID,141,VALID,1.77539,
2016-03-28, 08:06:04,VALID,920.924,VALID,0,VALID,80.8235,VALID,153.963,VALID,20.7755,VALID,135,VALID,1.54766,
2016-03-28, 08:07:04,VALID,920.962,VALID,0,VALID,81.4943,VALID,151.599,VALID,20.795,VALID,124,VALID,0.0636719,
2016-03-28, 08:08:04,VALID,921.002,VALID,0,VALID,80.8921,VALID,149.773,VALID,20.873,VALID,133,VALID,0.878125,
2016-03-28, 08:09:04,VALID,921.019,VALID,0,VALID,80.0764,VALID,147.946,VALID,20.873,VALID,146,VALID,1.59219,
2016-03-28, 08:10:04,VALID,921.023,VALID,0,VALID,79.1006,VALID,145.368,VALID,20.8925,VALID,147,VALID,2.19062,
2016-03-28, 08:11:04,VALID,921.062,VALID,0,VALID,79.7638,VALID,142.467,VALID,20.912,VALID,150,VALID,1.75273,
2016-03-28, 08:12:04,VALID,921.073,VALID,0,VALID,77.614,VALID,139.566,VALID,20.9706,VALID,154,VALID,2.05312,
2016-03-28, 08:13:04,VALID,921.094,VALID,0,VALID,78.9252,VALID,136.88,VALID,21.0291,VALID,147,VALID,1.69453,
2016-03-28, 08:14:04,VALID,921.113,VALID,0,VALID,78.7194,VALID,134.409,VALID,21.0486,VALID,124,VALID,1.88867,
2016-03-28, 08:15:04,VALID,921.122,VALID,0,VALID,79.497,VALID,132.582,VALID,21.0876,VALID,135,VALID,0.750781,
2016-03-28, 08:16:04,VALID,921.17,VALID,0,VALID,78.9862,VALID,131.186,VALID,21.1266,VALID,132,VALID,0.886719,
2016-03-28, 08:17:04,VALID,921.181,VALID,0,VALID,78.6127,VALID,129.574,VALID,21.1657,VALID,140,VALID,1.4207,
2016-03-28, 08:18:04,VALID,921.168,VALID,0,VALID,79.2683,VALID,127.855,VALID,21.1445,VALID,127,VALID,1.13594,
2016-03-28, 08:19:04,VALID,921.186,VALID,0,VALID,79.0091,VALID,125.814,VALID,21.1445,VALID,131,VALID,2.20273,
2016-03-28, 08:20:04,VALID,921.172,VALID,0,VALID,79.0243,VALID,124.095,VALID,21.1836,VALID,145,VALID,1.53633,
2016-03-28, 08:21:04,VALID,921.22,VALID,0,VALID,79.3903,VALID,123.235,VALID,21.1836,VALID,123,VALID,1.5875,
2016-03-28, 08:22:04,VALID,921.241,VALID,0,VALID,79.3064,VALID,123.45,VALID,21.2242,VALID,135,VALID,2.25547,
2016-03-28, 08:23:04,VALID,921.239,VALID,0,VALID,79.2378,VALID,123.88,VALID,21.2421,VALID,140,VALID,1.34219,
2016-03-28, 08:24:04,VALID,921.261,VALID,0,VALID,78.727,VALID,124.739,VALID,21.2811,VALID,145,VALID,2.00273,
2016-03-28, 08:25:04,VALID,921.241,VALID,0,VALID,78.7194,VALID,125.276,VALID,21.3006,VALID,148,VALID,1.69102,
2016-03-28, 08:26:04,VALID,921.256,VALID,0,VALID,78.849,VALID,126.136,VALID,21.3201,VALID,125,VALID,1.60859,
2016-03-28, 08:27:04,VALID,921.272,VALID,0,VALID,79.5351,VALID,127.748,VALID,21.3396,VALID,134,VALID,0.976953,
2016-03-28, 08:28:04,VALID,921.282,VALID,0,VALID,79.5961,VALID,128.607,VALID,21.3591,VALID,128,VALID,0.0625,
2016-03-28, 08:29:04,VALID,921.302,VALID,0,VALID,80.427,VALID,128.714,VALID,21.3981,VALID,53,VALID,0.766016,
2016-03-28, 08:30:04,VALID,921.357,VALID,0,VALID,79.6723,VALID,127.64,VALID,21.4372,VALID,117,VALID,1.26055,
2016-03-28, 08:31:04,VALID,921.344,VALID,0,VALID,79.7867,VALID,124.847,VALID,21.4583,VALID,113,VALID,0.357812,
2016-03-28, 08:32:04,VALID,921.382,VALID,0,VALID,78.4983,VALID,120.227,VALID,21.4372,VALID,145,VALID,0.962109,
2016-03-28, 08:33:04,VALID,921.4,VALID,0,VALID,78.5745,VALID,114.962,VALID,21.4778,VALID,139,VALID,0.311719,
2016-03-28, 08:34:04,VALID,921.441,VALID,0,VALID,78.0409,VALID,110.45,VALID,21.5168,VALID,155,VALID,2.10664,
2016-03-28, 08:35:04,VALID,921.479,VALID,0,VALID,78.8642,VALID,106.689,VALID,21.5559,VALID,125,VALID,0.232812,
2016-03-28, 08:48:04,VALID,921.563,VALID,0,VALID,77.5149,VALID,112.169,VALID,21.7493,VALID,127,VALID,1.26602,
2016-03-28, 08:49:04,VALID,921.586,VALID,0,VALID,76.8517,VALID,115.499,VALID,21.7688,VALID,128,VALID,1.30078,
2016-03-28, 08:50:04,VALID,921.578,VALID,0,VALID,78.4907,VALID,118.508,VALID,21.7883,VALID,92,VALID,0.464063,
2016-03-28, 08:51:04,VALID,921.58,VALID,0,VALID,78.7575,VALID,121.731,VALID,21.8079,VALID,112,VALID,0.423828,
2016-03-28, 08:52:04,VALID,921.559,VALID,0,VALID,78.1019,VALID,123.88,VALID,21.7688,VALID,124,VALID,1.09453,
2016-03-28, 08:53:04,VALID,921.581,VALID,0,VALID,78.7651,VALID,125.169,VALID,21.8079,VALID,108,VALID,0.455078,
2016-03-28, 08:54:04,VALID,921.577,VALID,0,VALID,78.9786,VALID,125.276,VALID,21.8079,VALID,114,VALID,0.522266,
2016-03-28, 08:55:04,VALID,921.558,VALID,0,VALID,78.6279,VALID,124.524,VALID,21.8274,VALID,126,VALID,1.1293,
2016-03-28, 08:56:04,VALID,921.574,VALID,0,VALID,78.1629,VALID,122.913,VALID,21.8274,VALID,112,VALID,1.39375,
2016-03-28, 08:57:04,VALID,921.6,VALID,0,VALID,78.262,VALID,121.946,VALID,21.8274,VALID,122,VALID,1.64102,
2016-03-28, 08:58:04,VALID,921.613,VALID,0,VALID,79.2835,VALID,120.656,VALID,21.8274,VALID,134,VALID,0.720703,
2016-03-28, 08:59:04,VALID,921.576,VALID,0,VALID,77.8884,VALID,119.475,VALID,21.8274,VALID,111,VALID,2.49688,
2016-03-28, 09:00:04,VALID,921.64,VALID,0,VALID,79.2607,VALID,119.045,VALID,21.8664,VALID,100,VALID,0.385156,
2016-03-28, 09:01:04,VALID,921.631,VALID,0,VALID,79.0243,VALID,118.937,VALID,21.8859,VALID,93,VALID,1.25312,
2016-03-28, 09:02:04,VALID,921.652,VALID,0,VALID,77.8579,VALID,119.582,VALID,21.8664,VALID,111,VALID,2.28828,
2016-03-28, 09:03:04,VALID,921.579,VALID,0,VALID,77.4463,VALID,120.979,VALID,21.8842,VALID,116,VALID,0.378125,
2016-03-28, 09:04:04,VALID,921.623,VALID,0,VALID,77.9799,VALID,122.59,VALID,21.9249,VALID,140,VALID,0.888672,
2016-03-28, 09:05:04,VALID,921.622,VALID,0,VALID,77.9494,VALID,124.309,VALID,21.9428,VALID,98,VALID,1.50117,
2016-03-28, 09:06:04,VALID,921.611,VALID,0,VALID,76.9736,VALID,125.921,VALID,21.964,VALID,93,VALID,0.992188,
2016-03-28, 09:07:04,VALID,921.621,VALID,0,VALID,77.3853,VALID,127.425,VALID,21.9835,VALID,107,VALID,0.827344,
2016-03-28, 09:08:04,VALID,921.637,VALID,0,VALID,77.6597,VALID,128.392,VALID,22.0225,VALID,119,VALID,0.0304688,
2016-03-28, 09:09:04,VALID,921.659,VALID,0,VALID,77.5835,VALID,130.111,VALID,22.0225,VALID,110,VALID,1.33672,
2016-03-28, 09:10:04,VALID,921.692,VALID,0,VALID,76.6001,VALID,131.83,VALID,21.9818,VALID,130,VALID,1.42891,
2016-03-28, 09:11:04,VALID,921.668,VALID,0,VALID,77.1642,VALID,134.194,VALID,22.0013,VALID,134,VALID,1.81016,
2016-03-28, 09:12:04,VALID,921.686,VALID,0,VALID,76.6535,VALID,136.987,VALID,22.0013,VALID,93,VALID,1.00547,
2016-03-28, 09:13:04,VALID,921.631,VALID,0,VALID,76.1579,VALID,140.426,VALID,22.0615,VALID,75,VALID,1.40586,
2016-03-28, 09:14:04,VALID,921.695,VALID,0,VALID,76.3256,VALID,143.971,VALID,22.0598,VALID,77,VALID,2.32969,
2016-03-28, 09:15:04,VALID,921.731,VALID,0,VALID,76.4019,VALID,147.517,VALID,22.081,VALID,79,VALID,1.7043,
2016-03-28, 09:16:04,VALID,921.717,VALID,0,VALID,76.4095,VALID,150.31,VALID,22.1005,VALID,69,VALID,1.70156,
2016-03-28, 09:17:04,VALID,921.726,VALID,0,VALID,77.1261,VALID,152.674,VALID,22.0989,VALID,95,VALID,0,
2016-03-28, 09:18:04,VALID,921.739,VALID,0,VALID,76.3638,VALID,153.426,VALID,22.1396,VALID,112,VALID,2.37578,
2016-03-28, 09:19:04,VALID,921.793,VALID,0,VALID,76.5848,VALID,152.996,VALID,22.0989,VALID,99,VALID,3.08633,
2016-03-28, 09:20:04,VALID,921.798,VALID,0,VALID,74.2902,VALID,152.781,VALID,22.1184,VALID,91,VALID,2.30664,
2016-03-28, 09:21:04,VALID,921.786,VALID,0,VALID,75.3575,VALID,152.674,VALID,22.1379,VALID,77,VALID,1.22812,
2016-03-28, 09:22:04,VALID,921.801,VALID,0,VALID,75.9521,VALID,152.781,VALID,22.1786,VALID,92,VALID,0.809766,
2016-03-28, 09:23:04,VALID,921.796,VALID,0,VALID,75.67,VALID,152.674,VALID,22.1786,VALID,106,VALID,1.12891,
2016-03-28, 09:25:04,VALID,921.809,VALID,0,VALID,76.4781,VALID,152.566,VALID,22.2176,VALID,59,VALID,1.26602,
2016-03-28, 09:26:04,VALID,921.839,VALID,0,VALID,75.2431,VALID,152.566,VALID,22.2176,VALID,126,VALID,1.10234,
2016-03-28, 09:27:04,VALID,921.823,VALID,0,VALID,76.6458,VALID,152.137,VALID,22.2176,VALID,69,VALID,2.04492,
2016-03-28, 09:28:04,VALID,921.872,VALID,0,VALID,76.0969,VALID,150.74,VALID,22.2567,VALID,76,VALID,0.422656,
2016-03-28, 09:29:04,VALID,921.888,VALID,0,VALID,76.1427,VALID,148.913,VALID,22.2371,VALID,120,VALID,0.205469,
2016-03-28, 09:30:04,VALID,921.906,VALID,0,VALID,77.2404,VALID,146.55,VALID,22.2176,VALID,65,VALID,0.801562,
2016-03-28, 09:31:04,VALID,921.884,VALID,0,VALID,76.3028,VALID,143.326,VALID,22.2567,VALID,72,VALID,0.589844,
2016-03-28, 09:32:04,VALID,921.881,VALID,0,VALID,76.2189,VALID,138.814,VALID,22.2567,VALID,39,VALID,2.05898,
2016-03-28, 09:33:04,VALID,921.936,VALID,0,VALID,75.4337,VALID,133.657,VALID,22.2762,VALID,151,VALID,0.5625,
2016-03-28, 09:34:04,VALID,921.964,VALID,0,VALID,77.1109,VALID,128.07,VALID,22.2745,VALID,119,VALID,0,
2016-03-28, 09:35:04,VALID,921.988,VALID,0,VALID,76.9813,VALID,123.02,VALID,22.3347,VALID,111,VALID,0,
2016-03-28, 09:36:04,VALID,921.992,VALID,0,VALID,77.0422,VALID,119.26,VALID,22.2957,VALID,83,VALID,2.72578,
2016-03-28, 09:37:04,VALID,921.958,VALID,0,VALID,76.9203,VALID,117.003,VALID,22.2176,VALID,99,VALID,2.61953,
2016-03-28, 09:38:04,VALID,921.979,VALID,0,VALID,76.1503,VALID,115.822,VALID,22.1379,VALID,124,VALID,2.93125,
2016-03-28, 09:39:04,VALID,921.943,VALID,0,VALID,75.8225,VALID,115.177,VALID,22.1591,VALID,72,VALID,1.41484,
2016-03-28, 09:40:04,VALID,921.926,VALID,0,VALID,77.7283,VALID,115.177,VALID,22.1591,VALID,48,VALID,2.74375,
2016-03-28, 09:41:04,VALID,921.936,VALID,0,VALID,76.7602,VALID,115.822,VALID,22.1201,VALID,123,VALID,0.716016,
2016-03-28, 09:42:04,VALID,921.926,VALID,0,VALID,77.5606,VALID,116.466,VALID,22.1396,VALID,122,VALID,0,
2016-03-28, 09:43:04,VALID,921.909,VALID,0,VALID,79.0396,VALID,117.326,VALID,22.1201,VALID,105,VALID,0.566797,
2016-03-28, 09:44:04,VALID,921.875,VALID,0,VALID,78.0409,VALID,118.83,VALID,22.0598,VALID,87,VALID,0.901563,
2016-03-28, 09:45:04,VALID,921.859,VALID,0,VALID,77.5301,VALID,120.119,VALID,22.0794,VALID,104,VALID,1.66875,
2016-03-28, 09:46:04,VALID,921.808,VALID,0,VALID,76.6611,VALID,121.086,VALID,22.1005,VALID,85,VALID,2.09375,
2016-03-28, 09:47:04,VALID,921.864,VALID,0,VALID,76.2113,VALID,121.838,VALID,22.1396,VALID,136,VALID,2.33906,
2016-03-28, 09:48:04,VALID,921.88,VALID,0,VALID,76.844,VALID,122.053,VALID,22.1396,VALID,94,VALID,2.04805,
2016-03-28, 09:49:04,VALID,921.836,VALID,0,VALID,76.3714,VALID,122.698,VALID,22.1201,VALID,137,VALID,1.56367,
2016-03-28, 09:50:04,VALID,921.875,VALID,0,VALID,76.6458,VALID,124.524,VALID,22.0989,VALID,79,VALID,2.46992,
2016-03-28, 09:51:04,VALID,921.792,VALID,0,VALID,76.8974,VALID,127.425,VALID,22.1201,VALID,68,VALID,1.24805,
2016-03-28, 09:52:04,VALID,921.851,VALID,0,VALID,76.4019,VALID,130.326,VALID,22.1201,VALID,68,VALID,2.8707,
2016-03-28, 09:53:04,VALID,921.845,VALID,0,VALID,77.8656,VALID,132.69,VALID,22.0989,VALID,67,VALID,1.45352,
2016-03-28, 09:54:04,VALID,921.809,VALID,0,VALID,77.6369,VALID,134.409,VALID,22.1201,VALID,105,VALID,0.497656,
2016-03-28, 09:55:04,VALID,921.809,VALID,0,VALID,76.9736,VALID,135.054,VALID,22.1184,VALID,83,VALID,0.154687,
2016-03-28, 09:56:04,VALID,921.766,VALID,0,VALID,76.1046,VALID,134.946,VALID,22.1379,VALID,52,VALID,3.41367,
2016-03-28, 09:57:04,VALID,921.81,VALID,0,VALID,76.4629,VALID,134.301,VALID,22.1786,VALID,104,VALID,0.0371094,
2016-03-28, 09:58:04,VALID,921.795,VALID,0,VALID,77.3548,VALID,132.797,VALID,22.2159,VALID,42,VALID,1.07891,
2016-03-28, 09:59:04,VALID,921.833,VALID,0,VALID,76.5772,VALID,130.648,VALID,22.2176,VALID,103,VALID,1.45078,
2016-03-28, 10:00:04,VALID,921.841,VALID,0,VALID,77.0194,VALID,127.962,VALID,22.2176,VALID,97,VALID,0.889844,
2016-03-28, 10:01:04,VALID,921.81,VALID,0,VALID,75.609,VALID,125.062,VALID,22.2371,VALID,74,VALID,1.57461,
2016-03-28, 10:02:04,VALID,921.827,VALID,0,VALID,76.5467,VALID,123.128,VALID,22.2354,VALID,52,VALID,1.89023,
2016-03-28, 10:03:04,VALID,921.863,VALID,0,VALID,76.8517,VALID,123.128,VALID,22.2567,VALID,148,VALID,1.16133,
2016-03-28, 10:04:04,VALID,921.872,VALID,0,VALID,76.6458,VALID,124.417,VALID,22.2159,VALID,104,VALID,0.141406,
2016-03-28, 10:05:04,VALID,921.842,VALID,0,VALID,75.792,VALID,126.458,VALID,22.2354,VALID,67,VALID,1.63594,
2016-03-28, 10:06:04,VALID,921.912,VALID,0,VALID,76.1579,VALID,128.285,VALID,22.2745,VALID,71,VALID,2.6875,
2016-03-28, 10:07:04,VALID,921.848,VALID,0,VALID,76.5543,VALID,128.929,VALID,22.3135,VALID,46,VALID,0,
2016-03-28, 10:08:04,VALID,921.872,VALID,0,VALID,76.3333,VALID,128.392,VALID,22.3135,VALID,128,VALID,0,
2016-03-28, 10:09:04,VALID,921.87,VALID,0,VALID,77.7817,VALID,126.888,VALID,22.3135,VALID,89,VALID,0,
2016-03-28, 10:10:04,VALID,921.87,VALID,0,VALID,77.5073,VALID,125.491,VALID,22.294,VALID,103,VALID,1.09648,
2016-03-28, 10:11:04,VALID,921.863,VALID,0,VALID,76.0512,VALID,123.987,VALID,22.3152,VALID,93,VALID,1.68086,
2016-03-28, 10:12:04,VALID,921.89,VALID,0,VALID,75.4185,VALID,123.342,VALID,22.2745,VALID,140,VALID,1.25234,
2016-03-28, 10:13:04,VALID,921.873,VALID,0,VALID,74.5189,VALID,123.772,VALID,22.3347,VALID,141,VALID,2.14219,
2016-03-28, 10:14:04,VALID,921.916,VALID,0,VALID,75.022,VALID,124.202,VALID,22.3347,VALID,84,VALID,0.867188,
2016-03-28, 10:15:04,VALID,921.866,VALID,0,VALID,75.388,VALID,124.095,VALID,22.3347,VALID,109,VALID,0.624609,
2016-03-28, 10:16:04,VALID,921.899,VALID,0,VALID,76.4019,VALID,124.309,VALID,22.294,VALID,72,VALID,2.04883,
2016-03-28, 10:17:04,VALID,921.909,VALID,0,VALID,76.3866,VALID,125.276,VALID,22.2745,VALID,111,VALID,0.288672,
2016-03-28, 10:18:04,VALID,921.904,VALID,0,VALID,76.4552,VALID,127.318,VALID,22.2957,VALID,101,VALID,0.333594,
2016-03-28, 10:19:04,VALID,921.915,VALID,0,VALID,74.5723,VALID,130.326,VALID,22.3152,VALID,100,VALID,2.27383,
2016-03-28, 10:20:04,VALID,921.914,VALID,0,VALID,75.7615,VALID,134.301,VALID,22.3347,VALID,92,VALID,0.354688,
2016-03-28, 10:21:04,VALID,921.86,VALID,0,VALID,74.6027,VALID,138.277,VALID,22.3525,VALID,75,VALID,1.66875,
2016-03-28, 10:22:04,VALID,921.858,VALID,0,VALID,74.9915,VALID,142.037,VALID,22.372,VALID,114,VALID,0.789453,
2016-03-28, 10:23:04,VALID,921.845,VALID,0,VALID,74.2292,VALID,144.723,VALID,22.3933,VALID,112,VALID,1.10859,
2016-03-28, 10:24:04,VALID,921.871,VALID,0,VALID,73.8709,VALID,147.409,VALID,22.3916,VALID,74,VALID,2.4082,
2016-03-28, 10:25:04,VALID,921.848,VALID,0,VALID,73.7032,VALID,150.955,VALID,22.4323,VALID,129,VALID,2.75039,
2016-03-28, 10:26:04,VALID,921.79,VALID,0,VALID,73.9776,VALID,154.393,VALID,22.4111,VALID,85,VALID,3.67383,
2016-03-28, 10:27:04,VALID,921.837,VALID,0,VALID,73.3144,VALID,158.046,VALID,22.3916,VALID,112,VALID,2.4457,
2016-03-28, 10:28:04,VALID,921.802,VALID,0,VALID,73.8328,VALID,162.558,VALID,22.4501,VALID,98,VALID,1.22539,
2016-03-28, 10:29:04,VALID,921.775,VALID,0,VALID,74.7095,VALID,167.286,VALID,22.4713,VALID,91,VALID,1.36133,
2016-03-28, 10:30:04,VALID,921.769,VALID,0,VALID,74.6714,VALID,172.765,VALID,22.4891,VALID,134,VALID,1.66445,
2016-03-28, 10:31:04,VALID,921.754,VALID,0,VALID,74.8619,VALID,177.708,VALID,22.4696,VALID,120,VALID,2.02148,
2016-03-28, 10:32:04,VALID,921.781,VALID,0,VALID,73.6117,VALID,181.683,VALID,22.4891,VALID,62,VALID,3.77227,
2016-03-28, 10:33:04,VALID,921.815,VALID,0,VALID,74.3664,VALID,183.402,VALID,22.5281,VALID,73,VALID,0.0558594,
2016-03-28, 10:34:04,VALID,921.824,VALID,0,VALID,73.2839,VALID,185.336,VALID,22.5867,VALID,118,VALID,1.54336,
2016-03-28, 10:35:04,VALID,921.783,VALID,0,VALID,73.0171,VALID,187.592,VALID,22.5867,VALID,82,VALID,2.62812,
2016-03-28, 10:36:04,VALID,921.782,VALID,0,VALID,72.1175,VALID,191.138,VALID,22.6257,VALID,104,VALID,1.58047,
2016-03-28, 10:37:04,VALID,921.763,VALID,0,VALID,72.9103,VALID,195.865,VALID,22.6452,VALID,104,VALID,1.57461,
2016-03-28, 10:38:04,VALID,921.786,VALID,0,VALID,74.092,VALID,202.849,VALID,22.6647,VALID,117,VALID,0.623047,
2016-03-28, 10:39:04,VALID,921.73,VALID,0,VALID,70.8673,VALID,209.08,VALID,22.6647,VALID,107,VALID,0.419141,
2016-03-28, 10:40:04,VALID,921.677,VALID,0,VALID,73.4211,VALID,213.915,VALID,22.7623,VALID,64,VALID,1.59648,
2016-03-28, 10:41:04,VALID,921.703,VALID,0,VALID,72.9866,VALID,219.825,VALID,22.7623,VALID,127,VALID,0.850781,
2016-03-28, 10:42:04,VALID,921.667,VALID,0,VALID,74.2749,VALID,228.312,VALID,22.7411,VALID,74,VALID,1.61016,
2016-03-28, 10:43:04,VALID,921.553,VALID,0,VALID,71.6982,VALID,238.949,VALID,22.7818,VALID,61,VALID,1.47109,
2016-03-28, 10:44:04,VALID,921.625,VALID,0,VALID,72.2471,VALID,248.941,VALID,22.8404,VALID,116,VALID,0.715234,
2016-03-28, 10:45:04,VALID,921.592,VALID,0,VALID,72.7274,VALID,258.826,VALID,22.8794,VALID,81,VALID,0.662891,
2016-03-28, 10:46:04,VALID,921.59,VALID,0,VALID,72.552,VALID,270.107,VALID,22.9185,VALID,118,VALID,0.691016,
2016-03-28, 10:47:04,VALID,921.558,VALID,0,VALID,71.1417,VALID,280.314,VALID,23.016,VALID,113,VALID,2.02969,
2016-03-28, 10:48:04,VALID,921.557,VALID,0,VALID,71.2332,VALID,285.149,VALID,23.0356,VALID,114,VALID,1.3625,
2016-03-28, 10:49:04,VALID,921.518,VALID,0,VALID,69.8534,VALID,281.496,VALID,23.0551,VALID,117,VALID,1.23828,
2016-03-28, 10:50:04,VALID,921.527,VALID,0,VALID,71.4085,VALID,279.884,VALID,23.0924,VALID,90,VALID,0.213281,
2016-03-28, 10:51:04,VALID,921.497,VALID,0,VALID,69.2969,VALID,278.917,VALID,23.1527,VALID,57,VALID,0.46875,
2016-03-28, 10:52:04,VALID,921.478,VALID,0,VALID,69.2664,VALID,275.157,VALID,23.2698,VALID,97,VALID,0.353516,
2016-03-28, 10:53:04,VALID,921.463,VALID,0,VALID,71.6601,VALID,270,VALID,23.2698,VALID,125,VALID,0.915234,
2016-03-28, 10:54:04,VALID,921.505,VALID,0,VALID,72.6435,VALID,265.165,VALID,23.2698,VALID,75,VALID,0.104687,
2016-03-28, 10:55:04,VALID,921.512,VALID,0,VALID,73.505,VALID,262.156,VALID,23.3656,VALID,104,VALID,0,
2016-03-28, 10:56:04,VALID,921.482,VALID,0,VALID,70.852,VALID,267.636,VALID,23.3869,VALID,67,VALID,0.503906,
2016-03-28, 10:57:04,VALID,921.438,VALID,0,VALID,70.4099,VALID,270.967,VALID,23.3265,VALID,113,VALID,1.87891,
2016-03-28, 10:58:04,VALID,921.385,VALID,0,VALID,70.2879,VALID,281.173,VALID,23.2875,VALID,58,VALID,1.61641,
2016-03-28, 10:59:04,VALID,921.381,VALID,0,VALID,72.0565,VALID,293.852,VALID,23.3478,VALID,99,VALID,0.105859,
2016-03-28, 11:00:04,VALID,921.36,VALID,0,VALID,72.8036,VALID,303.951,VALID,23.3851,VALID,35,VALID,0.458203,
2016-03-28, 11:01:04,VALID,921.351,VALID,0,VALID,71.683,VALID,311.042,VALID,23.4437,VALID,54,VALID,0.488281,
2016-03-28, 11:02:04,VALID,921.36,VALID,0,VALID,71.4009,VALID,311.794,VALID,23.4827,VALID,85,VALID,0.222266,
2016-03-28, 11:03:04,VALID,921.378,VALID,0,VALID,73.8023,VALID,307.711,VALID,23.4827,VALID,80,VALID,0.184375,
2016-03-28, 11:04:04,VALID,921.376,VALID,0,VALID,70.1278,VALID,303.844,VALID,23.4827,VALID,82,VALID,1.35078,
2016-03-28, 11:05:04,VALID,921.36,VALID,0,VALID,71.1112,VALID,304.166,VALID,23.543,VALID,106,VALID,0.725391,
2016-03-28, 11:06:04,VALID,921.354,VALID,0,VALID,69.2435,VALID,308.893,VALID,23.5448,VALID,85,VALID,1.11133,
2016-03-28, 11:07:04,VALID,921.354,VALID,0,VALID,67.4825,VALID,313.191,VALID,23.4845,VALID,152,VALID,3.29648,
2016-03-28, 11:08:04,VALID,921.349,VALID,0,VALID,70.4327,VALID,324.687,VALID,23.465,VALID,125,VALID,0,
2016-03-28, 11:09:04,VALID,921.285,VALID,0,VALID,68.0847,VALID,332.638,VALID,23.5235,VALID,191,VALID,0.226172,
2016-03-28, 11:10:04,VALID,921.295,VALID,0,VALID,70.0897,VALID,327.158,VALID,23.5626,VALID,140,VALID,0.0898438,
2016-03-28, 11:11:04,VALID,921.339,VALID,0,VALID,70.6462,VALID,328.662,VALID,23.6193,VALID,71,VALID,1.42656,
2016-03-28, 11:12:04,VALID,921.347,VALID,0,VALID,68.4278,VALID,331.241,VALID,23.5821,VALID,74,VALID,1.26602,
2016-03-28, 11:13:04,VALID,921.273,VALID,0,VALID,66.6439,VALID,331.778,VALID,23.6016,VALID,44,VALID,0.992969,
2016-03-28, 11:14:04,VALID,921.336,VALID,0,VALID,69.617,VALID,315.662,VALID,23.6211,VALID,99,VALID,2.31328,
2016-03-28, 11:15:04,VALID,921.377,VALID,0,VALID,68.2677,VALID,300.513,VALID,23.5412,VALID,109,VALID,1.27813,
2016-03-28, 11:16:04,VALID,921.378,VALID,0,VALID,70.326,VALID,277.735,VALID,23.543,VALID,119,VALID,1.19961,
2016-03-28, 11:17:04,VALID,921.356,VALID,0,VALID,67.8103,VALID,248.619,VALID,23.504,VALID,112,VALID,2.41094,
2016-03-28, 11:18:04,VALID,921.293,VALID,0,VALID,71.157,VALID,253.131,VALID,23.4454,VALID,92,VALID,1.81211,
2016-03-28, 11:19:04,VALID,921.285,VALID,0,VALID,71.2561,VALID,270.215,VALID,23.4064,VALID,114,VALID,0.871094,
2016-03-28, 11:20:04,VALID,921.28,VALID,0,VALID,69.5942,VALID,287.405,VALID,23.3461,VALID,121,VALID,1.99766,
2016-03-28, 11:21:04,VALID,921.245,VALID,0,VALID,71.1265,VALID,326.191,VALID,23.3265,VALID,98,VALID,2.40273,
2016-03-28, 11:22:04,VALID,921.212,VALID,0,VALID,71.7745,VALID,356.49,VALID,23.3265,VALID,137,VALID,1.01914,
2016-03-28, 11:23:04,VALID,921.173,VALID,0,VALID,70.4175,VALID,364.978,VALID,23.3461,VALID,124,VALID,1.67266,